Regional Weather Roundup
Issued by NWS

Home | Current Version | Previous Version | Graphics & Text | Print | Product List | Glossary On
Versions: 1 2 3 4 5 6 7 8 9 10 11 12 13 14 15 16 17 18 19 20 21 22 23 24 25 26 27 28 29 30 31 32 33 34 35 36 37 38 39 40 41 42 43 44 45 46 47 48 49 50
000
ASUS43 KLOT 260508
RWRIL

ILLINOIS REGIONAL WEATHER ROUNDUP
NATIONAL WEATHER SERVICE CHICAGO/ROMEOVILLE IL
1200 AM CDT SUN APR 26 2015

NOTE: "FAIR" INDICATES FEW OR NO CLOUDS BELOW 12,000 FEET WITH NO
SIGNIFICANT WEATHER AND/OR OBSTRUCTIONS TO VISIBILITY.

* THESE STATIONS ARE NOT UNDER NWS QUALITY CONTROL. THEY ALSO MAY NOT
  REPORT WEATHER SUCH AS PRECIPITATION OR FOG.

ILZ001-002-007-009-015-016-024-260600-
NORTHWEST ILLINOIS

CITY           SKY/WX    TMP DP  RH WIND       PRES   REMARKS
MOLINE         CLOUDY    45  35  68 NE9       29.89R
STERLING*      PTCLDY    41  30  65 NE5       29.89R
SAVANNA*       PTCLDY    41  33  73 N5        29.90R
$$

ILZ003-004-008-010-011-017-018-260600-
NORTH CENTRAL ILLINOIS

CITY           SKY/WX    TMP DP  RH WIND       PRES   REMARKS
ROCKFORD       CLEAR     42  21  43 NE13      29.90S
FREEPORT*      CLEAR     37  33  85 N5        29.91R WCI  33
ROCHELLE*      CLEAR     38  29  72 NE9       29.88R WCI  31
DE KALB*       CLEAR     36  26  66 N10       29.87R WCI  29
PERU*          CLOUDY    42  31  64 NE15      29.87R
$$

ILZ005-006-012>014-019>023-260600-
NORTHEAST ILLINOIS

CITY           SKY/WX    TMP DP  RH WIND       PRES   REMARKS
CHICAGO-OHARE  PTCLDY    41  30  65 N9        29.85R
CHICAGO-MIDWAY MOCLDY    42  32  67 N10       29.85R
AURORA         CLEAR     39  27  62 N6        29.87R WCI  35
LANSING*       CLOUDY    40  33  77 NE6       29.85R
JOLIET*        MOCLDY    42  33  70 CALM      29.85R
WAUKEGAN       CLEAR     38  29  70 N6        29.87R WCI  33
DUPAGE AIRPORT CLOUDY    39  29  67 N8        29.85R WCI  33
KANKAKEE*      CLOUDY    42  39  89 N7        29.84R
WHEELING       CLEAR     41  28  60 N6        29.87R
MORRIS*        CLOUDY    41  34  76 N3        29.84R
ROMEOVILLE*    CLOUDY    39  32  76 N9        29.85R WCI  32
NORTHERLY ISL    N/A     41  34  76 N13         N/A
$$

LMZ740>746-260600-
SOUTHERN LAKE MICHIGAN

STATION/POSITION SKY/WX   TEMP    WIND        PRES    VSBY  WAVE
                          AIR SEA DIR/SP/G                  HT/PER
                          (F)     (DEG/KT/KT) (MB)    (MI)  (FT/S)
HARRISON CRIB              39     340/ 15/ 18   N/A
BURNHAM HARBOR             41     350/  8/ 14   N/A
CALUMET HARBOR             40     330/  8/ 14   N/A
BURNS HARBOR               41      60/  7/ 10 1010.8S
MICHIGAN CITY              40      20/  9/ 10   N/A
MICHIGAN CITY 6N           39 45   60/  6/  8   N/A           2/ 3
$$

ILZ025>027-034>036-040-047-049-050-058-095>099-260600-
WEST-CENTRAL ILLINOIS

CITY           SKY/WX    TMP DP  RH WIND       PRES   REMARKS
QUINCY         CLOUDY    47  42  83 NE13      29.82R
GALESBURG*     CLOUDY    43  38  84 NE10      29.86R
MACOMB*        CLOUDY    45  41  87 NE13      29.87R
JACKSONVILLE*  CLOUDY    48  43  82 NE14G22   29.81R
PITTSFIELD*    CLOUDY    48  42  81 NE9G17    29.82R
$$

ILZ028>032-037-038-041>044-048-051>054-059>061-260600-
CENTRAL ILLINOIS

CITY           SKY/WX    TMP DP  RH WIND       PRES   REMARKS
PONTIAC        CLOUDY    44  41  88 NE13      29.84R
BLOOMINGTON    CLOUDY    45  42  89 NE14      29.82R
DECATUR        CLOUDY    46  42  86 NE17      29.78R
PEORIA         CLOUDY    47  40  76 NE10      29.83R
LACON*         CLOUDY    43  35  72 N5        29.85R
LINCOLN*       CLOUDY    47  43  85 NE12      29.80R
SPRINGFIELD    CLOUDY    48  41  76 NE17G24   29.81R
TAYLORVILLE    CLOUDY    45  41  87 NE14      29.78R
$$

ILZ033-039-045-046-055>057-062-063-260600-
EAST-CENTRAL ILLINOIS

CITY           SKY/WX    TMP DP  RH WIND       PRES   REMARKS
CHAMPAIGN      CLOUDY    45  40  82 NE18      29.78R
DANVILLE*      LGT RAIN  43  40  89 NE13      29.75S
RANTOUL*       CLOUDY    46  42  85 NE16      29.79R
MATTOON        CLOUDY    45  41  86 NE14      29.74R
PARIS*         CLOUDY    46  43  90 NE8G17    29.76R
$$

ILZ079-100>102-260600-
SOUTHWEST ILLINOIS

CITY           SKY/WX    TMP DP  RH WIND       PRES   REMARKS
ALTON          CLOUDY    47  46  93 NE8G17    29.76R
BELLEVILLE     CLOUDY    49  49  99 N10       29.73R
CAHOKIA*       CLOUDY    50  47  89 NE12      29.75R
SPARTA*        CLOUDY    50  49  96 NE10G20   29.72R
$$

ILZ064>066-069>071-074>076-080>082-084>086-088>090-092>094-260600-
SOUTH-CENTRAL ILLINOIS

CITY           SKY/WX    TMP DP  RH WIND       PRES   REMARKS
CARBONDALE     CLOUDY    54  52  93 N9G18     29.68R
CAIRO*         CLOUDY    63  58  86 N6        29.64R
EFFINGHAM*     CLOUDY    46  43  88 NE7       29.75R
MARION         CLOUDY    55  54  94 N14G20    29.69R FOG
MT. VERNON     CLOUDY    48  43  81 N12G20    29.70S
CENTRALIA*     CLOUDY    47  45  93 NE9G16    29.71S FOG
SALEM*         CLOUDY    49  47  90 NE10      29.72R FOG
METROPOLIS*    CLOUDY    61  61 100 N9        29.63R
$$

ILZ067-068-072-073-078-083-087-091-260600-
SOUTHEAST ILLINOIS

CITY           SKY/WX    TMP DP  RH WIND       PRES   REMARKS
LAWRENCEVILLE  CLOUDY    47  45  93 NE17      29.71R FOG
FLORA*         CLOUDY    48  46  90 NE8       29.72R
FAIRFIELD*     CLOUDY    49  47  93 NE10      29.70R
HARRISBURG*    CLOUDY    52  52 100 N15       29.69R FOG
ROBINSON*      CLOUDY    46  45  94 NE17      29.73S
CARMI*         CLOUDY    50  45  84 N16G22    29.67R HAZE
$$

ABBREVIATIONS USED IN REMARKS
   TC - TEMPERATURE IN CELSIUS
  WCI - WIND CHILL INDEX
   HX - HEAT INDEX
  VSB - VISIBILITY
$$




USA.gov is the U.S. government's official web portal to all federal, state and local government web resources and services.